^^
Mint Hill Weather Station Historical Data
 
Daily Summary for July 30, 2015 Units:  English    Metric   Both
« Previous Day
Next Day »
Daily Weekly Monthly Yearly Custom
  Current: High: Low: Average:
Temperature: 83.8 °F 83.8 °F 73.9 °F 77.1 °F
Dew Point: 77.0 °F 77.0 °F 71.7 °F 74 °F
Humidity: 80% 95% 79% 90%
Wind Speed: 0.0mph 2.9mph 0.0mph 0.1mph
Wind Gust: 0.0mph 4.6mph - -
WindCalm - - West
Pressure: 29.97 in 29.99 in 29.93 in -
Precipitation: 0.00 in      
Historical Graphs
 
 
Tabular Data for July 30, 2015
Time Temperature Dew Point Pressure Wind Wind Speed Wind Gust Humidity Rainfall Rate (Hourly) solar Conditions
00:02 80.1 °F 75.2 °F 29.98 in Calm     85% 0.00 in 0.0 W/m2 SCT
00:06 80.0 °F 75.4 °F 29.98 in Calm     86% 0.00 in 0.0 W/m2 SCT
00:11 79.9 °F 75.3 °F 29.98 in Calm     86% 0.00 in 0.0 W/m2 SCT
00:16 79.8 °F 75.2 °F 29.98 in Calm     86% 0.00 in 0.0 W/m2 SCT
00:21 79.7 °F 75.1 °F 29.98 in Calm     86% 0.00 in 0.0 W/m2 SCT
00:26 79.6 °F 75.0 °F 29.98 in Calm     86% 0.00 in 0.0 W/m2 SCT
00:31 79.5 °F 75.3 °F 29.98 in Calm     87% 0.00 in 0.0 W/m2 SCT
00:36 79.4 °F 75.2 °F 29.98 in Calm     87% 0.00 in 0.0 W/m2 SCT
00:41 79.3 °F 75.1 °F 29.98 in Calm     87% 0.00 in 0.0 W/m2 SCT
00:46 79.2 °F 75.0 °F 29.98 in Calm     87% 0.00 in 0.0 W/m2 SCT
00:51 79.1 °F 74.9 °F 29.98 in WNW 0.2 mph 1.1 mph 87% 0.00 in 0.0 W/m2 SCT
00:56 79.0 °F 75.1 °F 29.98 in Calm     88% 0.00 in 0.0 W/m2 SCT
01:01 78.9 °F 75.0 °F 29.99 in Calm     88% 0.00 in 0.0 W/m2 SCT
01:06 78.8 °F 74.9 °F 29.98 in Calm     88% 0.00 in 0.0 W/m2 OVC
01:11 78.7 °F 74.8 °F 29.98 in Calm     88% 0.00 in 0.0 W/m2 OVC
01:16 78.5 °F 74.6 °F 29.98 in Calm     88% 0.00 in 0.0 W/m2 OVC
01:21 78.5 °F 75.0 °F 29.98 in Calm     89% 0.00 in 0.0 W/m2 OVC
01:26 78.3 °F 74.8 °F 29.98 in Calm     89% 0.00 in 0.0 W/m2 OVC
01:36 78.2 °F 74.7 °F 29.98 in WNW 0.1 mph 1.1 mph 89% 0.00 in 0.0 W/m2 OVC
01:41 78.0 °F 74.5 °F 29.98 in Calm     89% 0.00 in 0.0 W/m2 OVC
01:46 78.0 °F 74.8 °F 29.98 in Calm     90% 0.00 in 0.0 W/m2 OVC
01:51 78.0 °F 74.8 °F 29.98 in Calm   1.1 mph 90% 0.00 in 0.0 W/m2 OVC
01:56 78.0 °F 74.8 °F 29.98 in Calm     90% 0.00 in 0.0 W/m2 OVC
02:01 78.0 °F 74.8 °F 29.98 in Calm     90% 0.00 in 0.0 W/m2 OVC
02:06 78.0 °F 74.8 °F 29.98 in Calm     90% 0.00 in 0.0 W/m2 BKN
02:11 78.1 °F 74.9 °F 29.97 in Calm     90% 0.00 in 0.0 W/m2 BKN
02:16 78.1 °F 74.9 °F 29.97 in Calm     90% 0.00 in 0.0 W/m2 BKN
02:21 78.0 °F 74.8 °F 29.97 in Calm     90% 0.00 in 0.0 W/m2 BKN
02:26 78.0 °F 74.8 °F 29.97 in Calm     90% 0.00 in 0.0 W/m2 BKN
02:31 78.0 °F 74.8 °F 29.97 in Calm     90% 0.00 in 0.0 W/m2 BKN
02:36 77.9 °F 74.7 °F 29.97 in Calm     90% 0.00 in 0.0 W/m2 BKN
02:41 77.8 °F 74.6 °F 29.97 in Calm     90% 0.00 in 0.0 W/m2 BKN
02:46 77.8 °F 74.6 °F 29.97 in Calm     90% 0.00 in 0.0 W/m2 BKN
02:51 77.7 °F 74.5 °F 29.97 in Calm     90% 0.00 in 0.0 W/m2 BKN
02:56 77.7 °F 74.5 °F 29.97 in Calm     90% 0.00 in 0.0 W/m2 BKN
03:01 77.7 °F 74.5 °F 29.97 in Calm     90% 0.00 in 0.0 W/m2 BKN
03:06 77.6 °F 74.4 °F 29.97 in Calm     90% 0.00 in 0.0 W/m2 OVC
03:11 77.6 °F 74.4 °F 29.97 in Calm     90% 0.00 in 0.0 W/m2 OVC
03:16 77.5 °F 74.7 °F 29.96 in Calm     91% 0.00 in 0.0 W/m2 OVC
03:21 77.5 °F 74.7 °F 29.96 in Calm     91% 0.00 in 0.0 W/m2 OVC
03:26 77.5 °F 74.7 °F 29.96 in Calm     91% 0.00 in 0.0 W/m2 OVC
03:31 77.4 °F 74.6 °F 29.96 in Calm     91% 0.00 in 0.0 W/m2 OVC
03:46 77.2 °F 74.4 °F 29.96 in Calm     91% 0.00 in 0.0 W/m2 OVC
03:51 77.2 °F 74.4 °F 29.96 in Calm     91% 0.00 in 0.0 W/m2 OVC
03:56 77.1 °F 74.3 °F 29.96 in Calm     91% 0.00 in 0.0 W/m2 OVC
04:01 77.0 °F 74.2 °F 29.96 in Calm     91% 0.00 in 0.0 W/m2 OVC
04:06 76.9 °F 74.4 °F 29.95 in Calm     92% 0.00 in 0.0 W/m2 OVC
04:11 76.9 °F 74.4 °F 29.95 in Calm     92% 0.00 in 0.0 W/m2 OVC
04:16 76.8 °F 74.3 °F 29.95 in Calm     92% 0.00 in 0.0 W/m2 OVC
04:21 76.7 °F 74.2 °F 29.95 in Calm     92% 0.00 in 0.0 W/m2 OVC
04:26 76.7 °F 73.9 °F 29.95 in Calm     91% 0.00 in 0.0 W/m2 OVC
04:31 76.6 °F 73.8 °F 29.95 in Calm     91% 0.00 in 0.0 W/m2 OVC
04:36 76.6 °F 73.8 °F 29.95 in Calm     91% 0.00 in 0.0 W/m2 OVC
04:41 76.5 °F 73.7 °F 29.95 in Calm     91% 0.00 in 0.0 W/m2 OVC
04:46 76.4 °F 73.6 °F 29.95 in Calm     91% 0.00 in 0.0 W/m2 OVC
04:51 76.2 °F 73.4 °F 29.95 in Calm     91% 0.00 in 0.0 W/m2 OVC
04:56 76.1 °F 73.6 °F 29.95 in Calm     92% 0.00 in 0.0 W/m2 OVC
05:01 76.0 °F 73.2 °F 29.95 in Calm     91% 0.00 in 0.0 W/m2 FEW
05:07 75.9 °F 73.1 °F 29.95 in Calm     91% 0.00 in 0.0 W/m2 FEW
05:12 75.9 °F 73.4 °F 29.94 in Calm     92% 0.00 in 0.0 W/m2 FEW
05:17 75.8 °F 73.3 °F 29.94 in Calm     92% 0.00 in 0.0 W/m2 FEW
05:22 75.7 °F 73.2 °F 29.94 in Calm     92% 0.00 in 0.0 W/m2 FEW
05:27 75.6 °F 73.1 °F 29.94 in Calm     92% 0.00 in 0.0 W/m2 FEW
05:32 75.5 °F 72.7 °F 29.93 in Calm     91% 0.00 in 0.0 W/m2 FEW
05:37 75.4 °F 72.9 °F 29.93 in Calm     92% 0.00 in 0.0 W/m2 FEW
05:42 75.3 °F 72.8 °F 29.94 in Calm     92% 0.00 in 0.0 W/m2 FEW
05:47 75.2 °F 72.7 °F 29.94 in Calm     92% 0.00 in 0.0 W/m2 FEW
05:52 75.1 °F 72.6 °F 29.94 in Calm     92% 0.00 in 0.0 W/m2 FEW
05:57 75.0 °F 72.5 °F 29.94 in Calm     92% 0.00 in 0.0 W/m2 FEW
06:02 74.9 °F 72.4 °F 29.94 in Calm     92% 0.00 in 0.0 W/m2 CLR
06:07 74.8 °F 72.3 °F 29.94 in Calm     92% 0.00 in 0.0 W/m2 CLR
06:12 74.7 °F 72.2 °F 29.94 in Calm     92% 0.00 in 0.0 W/m2 CLR
06:17 74.6 °F 72.1 °F 29.95 in Calm     92% 0.00 in 0.0 W/m2 CLR
06:22 74.6 °F 72.1 °F 29.95 in Calm     92% 0.00 in 0.0 W/m2 CLR
06:27 74.5 °F 72.0 °F 29.95 in Calm     92% 0.00 in 0.0 W/m2 CLR
06:32 74.4 °F 71.9 °F 29.95 in Calm     92% 0.00 in 0.0 W/m2 CLR
06:37 74.3 °F 72.1 °F 29.95 in Calm     93% 0.00 in 6.0 W/m2 CLR
06:42 74.3 °F 72.1 °F 29.95 in Calm     93% 0.00 in 8.4 W/m2 CLR
06:47 74.2 °F 72.0 °F 29.95 in Calm     93% 0.00 in 13.2 W/m2 CLR
06:52 74.1 °F 71.9 °F 29.95 in Calm     93% 0.00 in 14.4 W/m2 CLR
06:57 74.0 °F 71.8 °F 29.95 in Calm     93% 0.00 in 16.8 W/m2 CLR
07:02 74.0 °F 71.8 °F 29.95 in Calm     93% 0.00 in 19.2 W/m2 CLR
07:07 74.0 °F 71.8 °F 29.95 in Calm     93% 0.00 in 22.8 W/m2 CLR
07:12 73.9 °F 71.7 °F 29.96 in Calm     93% 0.00 in 25.2 W/m2 CLR
07:17 73.9 °F 71.7 °F 29.96 in Calm     93% 0.00 in 30.0 W/m2 CLR
07:22 73.9 °F 71.7 °F 29.96 in Calm     93% 0.00 in 31.2 W/m2 CLR
07:27 73.9 °F 72.1 °F 29.96 in Calm     94% 0.00 in 38.4 W/m2 CLR
07:32 73.9 °F 72.1 °F 29.96 in Calm     94% 0.00 in 44.4 W/m2 CLR
07:37 73.9 °F 72.1 °F 29.96 in Calm     94% 0.00 in 39.6 W/m2 CLR
07:42 74.0 °F 72.2 °F 29.96 in Calm     94% 0.00 in 46.8 W/m2 CLR
07:47 74.0 °F 72.2 °F 29.96 in Calm     94% 0.00 in 44.4 W/m2 CLR
07:52 74.1 °F 72.3 °F 29.97 in Calm     94% 0.00 in 52.8 W/m2 CLR
07:57 74.2 °F 72.4 °F 29.96 in Calm     94% 0.00 in 56.4 W/m2 CLR
08:02 74.3 °F 72.8 °F 29.97 in Calm     95% 0.00 in 56.4 W/m2 CLR
08:07 74.4 °F 72.9 °F 29.97 in Calm     95% 0.00 in 58.8 W/m2 CLR
08:12 74.7 °F 73.2 °F 29.96 in Calm     95% 0.00 in 58.8 W/m2 CLR
08:17 75.0 °F 73.5 °F 29.97 in Calm     95% 0.00 in 61.2 W/m2 CLR
08:22 75.2 °F 73.7 °F 29.97 in Calm     95% 0.00 in 69.6 W/m2 CLR
08:27 75.5 °F 73.7 °F 29.97 in Calm     94% 0.00 in 63.6 W/m2 CLR
08:32 75.7 °F 73.8 °F 29.97 in WNW 0.7 mph 2.3 mph 94% 0.00 in 69.6 W/m2 CLR
08:37 75.9 °F 74.0 °F 29.97 in Calm   1.0 mph 94% 0.00 in 72.0 W/m2 CLR
08:42 76.3 °F 74.1 °F 29.97 in Calm   2.3 mph 93% 0.00 in 82.8 W/m2 CLR
08:47 76.7 °F 74.2 °F 29.97 in SSW 1.1 mph 3.5 mph 92% 0.00 in 117.6 W/m2 CLR
08:52 77.1 °F 74.3 °F 29.97 in West 0.7 mph 2.3 mph 91% 0.00 in 156.0 W/m2 CLR
08:57 77.8 °F 74.6 °F 29.97 in West 0.1 mph 3.5 mph 90% 0.00 in 183.6 W/m2 CLR
09:02 78.5 °F 75.0 °F 29.97 in WNW 0.5 mph 3.5 mph 89% 0.00 in 178.8 W/m2 CLR
09:07 79.1 °F 75.2 °F 29.97 in Calm   1.1 mph 88% 0.00 in 222.0 W/m2 CLR
09:12 79.8 °F 75.6 °F 29.97 in Calm   1.1 mph 87% 0.00 in 476.4 W/m2 CLR
09:22 80.8 °F 75.9 °F 29.97 in West 0.4 mph 2.3 mph 85% 0.00 in 238.8 W/m2 CLR
09:27 81.4 °F 76.1 °F 29.97 in West 2.0 mph 3.5 mph 84% 0.00 in 457.2 W/m2 CLR
09:32 82.1 °F 76.4 °F 29.97 in WSW 1.1 mph 2.3 mph 83% 0.00 in 272.4 W/m2 CLR
09:37 82.7 °F 76.3 °F 29.97 in West 2.9 mph 4.6 mph 81% 0.00 in 291.6 W/m2 CLR
09:42 83.0 °F 76.6 °F 29.97 in WSW 0.4 mph 2.3 mph 81% 0.00 in 228.0 W/m2 CLR
09:47 83.1 °F 76.7 °F 29.97 in West 0.3 mph 2.3 mph 81% 0.00 in 250.8 W/m2 CLR
09:52 83.4 °F 77.0 °F 29.97 in NW 0.3 mph 2.3 mph 81% 0.00 in 280.8 W/m2 CLR
09:57 83.6 °F 76.4 °F 29.97 in Calm   1.1 mph 79% 0.00 in 242.4 W/m2 CLR
10:02 83.8 °F 77.0 °F 29.97 in Calm     80% 0.00 in 255.6 W/m2 CLR
Mint Hill, North Carolina, USA
Compliments of Weather Underground